Home > Weather > Yokosuka > Past weeks

Flag for Japan Weather for the Past 2 Weeks in Yokosuka, Japan

Now
64 °F

Clear.


Feels Like: 64 °F
Forecast: 58 / 72 °F
Wind: 3 mph from East

Location: Tokyo International Airport

Current Time: May 1, 2016 at 7:46:06 PM

Latest Report: May 1, 2016 at 7:00 PM


Visibility: 10 mi

Pressure: 29.89 "Hg

Humidity: 88%

Dew Point: 61 °F

Location of YokosukaLocation

Historic Weather in Yokosuka — Graph

°F

Yokosuka Temperature Yesterday

Maximum temperature yesterday: 68 °F (at 1:00 PM)
Minimum temperature yesterday: 54 °F (at 5:00 AM)
Average temperature yesterday: 62 °F

High & Low Weather Summary for the Past Weeks

 TemperatureHumidityPressure
High75 °F (Apr 18, 11:00 AM)100% (Apr 21, 11:50 PM)30.30 "Hg (Apr 21, 11:50 PM)
Low52 °F (Apr 20, 4:30 AM)30% (Apr 29, 3:04 PM)29.33 "Hg (Apr 28, 5:00 PM)
Average63 °F72%29.86 "Hg
* Reported Apr 16 6:00 PM — May 1 6:30 PM, Yokosuka, Weather by CustomWeather, © 2016

Note: Actual official high and low records may vary slightly from our data, if they occured in-between our weather recording intervals... More about our weather records

Advertising

Yokosuka Weather History for the Previous 24 Hours

Scroll right to see more
 ConditionsComfort  
Time TempWeatherWind HumidityBarometerVisibility
6:30 PM
Sun, May 1
64 °FPassing clouds.7 mph88%29.86 "HgN/A
6:00 PM66 °FSunny.10 mph78%29.86 "Hg10 mi
5:30 PM66 °FSunny.13 mph78%29.83 "Hg10 mi
5:00 PM68 °FSunny.14 mph69%29.83 "Hg10 mi
4:00 PM72 °FPartly sunny.15 mph57%29.80 "HgN/A
3:30 PM72 °FPartly sunny.17 mph61%29.80 "HgN/A
3:00 PM72 °FPartly sunny.17 mph61%29.83 "HgN/A
2:30 PM75 °FScattered clouds.16 mph47%29.80 "HgN/A
1:30 PM73 °FSunny.16 mph53%29.83 "Hg10 mi
12:30 PM68 °FSunny.7 mph60%29.86 "Hg10 mi
11:30 AM66 °FSunny.7 mph60%29.86 "Hg10 mi
11:00 AM64 °FSunny.7 mph64%29.89 "Hg10 mi
10:30 AM64 °FSunny.7 mph68%29.89 "Hg10 mi
10:00 AM63 °FSunny.8 mph73%29.89 "Hg10 mi
9:30 AM63 °FSunny.8 mph73%29.89 "Hg10 mi
9:00 AM63 °FSunny.7 mph73%29.89 "Hg10 mi
8:30 AM61 °FSunny.5 mph77%29.89 "Hg10 mi
8:00 AM61 °FPassing clouds.5 mph77%29.89 "HgN/A
7:30 AM61 °FPassing clouds.3 mph72%29.89 "HgN/A
7:00 AM61 °FSunny.2 mph72%29.92 "Hg10 mi
6:30 AM59 °FSunny.1 mph72%29.89 "Hg10 mi
6:00 AM57 °FSunny.5 mph77%29.92 "Hg10 mi
5:30 AM57 °FSunny.3 mph77%29.92 "Hg10 mi
5:00 AM55 °FSunny.6 mph82%29.89 "Hg10 mi
4:30 AM57 °FClear.6 mph72%29.89 "Hg10 mi
4:00 AM57 °FClear.6 mph72%29.89 "Hg10 mi
3:30 AM57 °FPassing clouds.5 mph72%29.89 "HgN/A
3:00 AM57 °FClear.5 mph72%29.89 "Hg10 mi
2:30 AM57 °FClear.8 mph72%29.89 "Hg10 mi
2:00 AM59 °FPassing clouds.7 mph68%29.89 "HgN/A
1:30 AM59 °FPassing clouds.6 mph68%29.89 "HgN/A
1:00 AM59 °FClear.7 mph63%29.89 "Hg10 mi
12:30 AM61 °FPassing clouds.7 mph59%29.89 "HgN/A
12:00 AM61 °FPassing clouds.7 mph59%29.89 "HgN/A
11:30 PM
Sat, Apr 30
63 °FClear.7 mph64%29.89 "Hg10 mi
11:00 PM63 °FPassing clouds.6 mph64%29.89 "HgN/A
10:30 PM64 °FClear.8 mph60%29.86 "Hg10 mi
10:00 PM63 °FClear.7 mph64%29.86 "Hg10 mi
9:30 PM63 °FClear.10 mph64%29.86 "Hg10 mi
9:00 PM63 °FClear.13 mph64%29.86 "Hg10 mi
8:30 PM64 °FClear.15 mph60%29.86 "Hg10 mi
8:00 PM64 °FPassing clouds.15 mph60%29.86 "HgN/A
7:30 PM63 °FClear.17 mph64%29.86 "Hg10 mi
7:00 PM63 °FPassing clouds.17 mph68%29.86 "HgN/A
Weather by CustomWeather, © 2016

See weather overviewHow to use our weather pages